Regional Weather Roundup
Issued by NWS

Home | Current Version | Previous Version | Graphics & Text | Print | Product List | Glossary On
Versions: 1 2 3 4 5 6 7 8 9 10 11 12 13 14 15 16 17 18 19 20 21 22 23 24 25 26 27 28 29 30 31 32 33 34 35 36 37 38 39 40 41 42 43 44 45 46 47 48 49 50
000
ASUS45 KCYS 270710
RWRWY

WYOMING REGIONAL WEATHER ROUNDUP
NATIONAL WEATHER SERVICE CHEYENNE WY
100 AM MDT FRI MAR 27 2015

NOTE:  "FAIR" INDICATES FEW OR NO CLOUDS BELOW 12,000 FEET
WITH NO SIGNIFICANT WEATHER AND/OR OBSTRUCTIONS TO VISIBILITY.

WYZ001-270800-
YELLOWSTONE NATIONAL PARK

CITY           SKY/WX    TMP DP  RH WIND       PRES   REMARKS
LK YELLOWSTONE   N/A     28  25  88 CALM      30.38F
W YELLOWSTONE  NOT AVBL

$$
WYZ002>013-054>058-071-098>099-270800-
NORTHERN WYOMING

CITY           SKY/WX    TMP DP  RH WIND       PRES   REMARKS
JACKSON        FAIR      34  30  86 CALM      30.34F
CODY           FAIR      54  30  40 W21G28    30.15F
GREYBULL       FAIR      47  33  58 E3        30.12F
WORLAND        FAIR      42  31  64 S12       30.14S
SHERIDAN       CLOUDY    47  37  68 W3        30.11F
BUFFALO        CLOUDY    45  36  70 SW7       30.14S
GILLETTE       CLOUDY    42  40  92 S5        30.11F
HULETT         CLOUDY    41  37  87 SW8       30.10F
NEWCASTLE      DRIZZLE   36  34  93 SE3       30.16S

$$
WYZ014>020-022>026-101>103-270800-
CENTRAL WYOMING

CITY           SKY/WX    TMP DP  RH WIND       PRES   REMARKS
BIG PINEY      FAIR      34  27  75 NW12      30.34F WCI  25
PINEDALE       FAIR      37  30  75 W14       30.33S WCI  29
DUBOIS         CLOUDY    43  28  56 W17G26    30.31F
LANDER         FAIR      44  25  47 VRB3      30.19F
RIVERTON       FAIR      48  30  49 NW20      30.20S
CASPER         CLOUDY    46  31  55 SW10      30.17S
DOUGLAS        CLOUDY    44  33  65 CALM      30.15F

$$
WYZ021-027>030-104>119-270800-
SOUTHERN WYOMING

CITY           SKY/WX    TMP DP  RH WIND       PRES   REMARKS
EVANSTON       FAIR      38  26  62 SW6       30.39F WCI  33
KEMMERER       FAIR      36  30  80 CALM      30.38F
FORT BRIDGER   FAIR      41  30  64 W10       30.40F
ROCK SPRINGS   FAIR      39  29  67 W15       30.32F WCI  31
DIXON          FAIR      32  28  84 NE5       30.35R WCI  27
RAWLINS        FAIR      37  27  67 S10       30.27F WCI  30
SARATOGA       FAIR      41  28  60 W17       30.28S
LARAMIE        FAIR      37  26  64 NW10      30.22S WCI  30
CHEYENNE       CLOUDY    42  26  53 SW12      30.18F
TORRINGTON     CLOUDY    38  31  76 SE5       30.13F WCI  34
PINE BLUFFS    CLOUDY    39  32  75 SW7       30.16F WCI  34

$$



USA.gov is the U.S. government's official web portal to all federal, state and local government web resources and services.